Weather in Bakharevo

Russia / Tambov Oblast     52°12′27″N   41°38′14″E
temp.,
°C
wind,
m/s
gust,
m/s
humid.,
%
clouds,
%
prec.,
mm/h
press.,
hPa
HPBL,
m
3 march, wed
wed300:000nw51095100 0.3 1008486
03:00−3nw499695 0.3 1009275
06:00−2nw6119594 0.2 1010625
09:00−2nnw8128997 0.5 1012882
12:00−2nnw7108689 0.0 1014822
15:00−3nw6108773 0.1 1015715
18:00−5nw5118992 0.0 1016505
21:00−6w4119377 0.0 1017213
4 march, thu
thu400:00−3wsw5119465 0.0 1015348
03:00−2w7139283 0.1 1013692
06:00−2wsw71391100 0.1 1011689
09:00−1wsw91690100 0.3 1009607
12:00+1wsw9168881 0.0 1008757
15:00+1wsw8158571 0.0 1007913
18:000wsw4128680 0.0 1005436
21:000wsw5128889 0.0 1004439
5 march, fri
fri500:00+1sw51194100 0.0 1002482
03:00+1wsw61499100 0.7 1001513
06:00+1w71399100 1.1 1001608
09:00−1wnw5996100 1.4 1004513
12:00−1nnw359094 0.2 1006588
15:00−1nw458994 0.3 1009523
18:00−5nw239150 0.0 101125
21:00−6nw229148 0.0 101321
6 march, sat
sat600:00−6nw1293100 0.0 101321
03:00−6n2394100 0.0 101457
06:00−8n3390100 0.0 101467
09:00−8n3689100 0.0 1015209
12:00−6nnw358372 0.0 1015412
15:00−5wnw348336 0.0 1015465
18:00−9w23880 0.0 101522
21:00−9nw128429 0.0 101621
7 march, sun
sun700:00−9n229699 0.3 101663
03:00−9nnw3596100 0.7 1017147
06:00−14w348836 0.0 101747
09:00−10sw6118821 0.0 1015416
12:00−5sw91476100 0.0 1012918
15:00−4sw91769100 0.0 10081212
18:00−3sw91873100 0.0 10041163
21:00−2wsw101982100 0.4 10011241